FW1555 Weather Reports


time (UTC)temp
F
wind
direction
speed
knots
gust
knots
rain 1hr
in
rain 24hr
in
rain mn
in
humidity
%
barometer
mb
20260503031600 51 0 0.0 0.9 0.00 0.04 0.04 47 1010.8
20260503030050 51 0 0.0 2.6 0.00 0.04 0.04 47 1010.6
20260503024542 51 0 0.0 0.9 0.00 0.04 0.04 48 1010.7
20260503023051 51 0 0.0 0.0 0.00 0.04 0.04 48 1010.7
20260503021546 52 0 0.0 0.0 0.00 0.04 0.04 48 1011.0
20260503020049 52 0 0.0 0.0 0.00 0.04 0.04 49 1011.1
20260503014604 52 0 0.0 0.0 0.00 0.04 0.04 48 1011.1
20260503013046 53 0 0.0 0.9 0.00 0.04 0.04 48 1011.0
20260503011554 53 0 0.0 0.9 0.00 0.04 0.04 47 1010.8
20260503010047 53 0 0.0 0.0 0.00 0.04 0.04 47 1010.6
20260503004547 53 0 0.0 0.9 0.00 0.04 0.04 46 1010.4
20260503003059 54 0 0.0 0.0 0.00 0.04 0.04 47 1010.6
20260503001555 54 0 0.0 0.0 0.00 0.04 0.04 46 1010.3
20260503000048 54 0 0.0 0.9 0.00 0.04 0.04 45 1010.3
20260502234551 55 0 0.0 0.9 0.00 0.04 0.04 45 1010.2
20260502233049 55 0 0.0 2.6 0.00 0.04 0.04 44 1010.0
20260502231551 57 0 0.0 5.2 0.00 0.04 0.04 43 1009.9
20260502230044 59 244 0.9 3.5 0.00 0.04 0.04 38 1009.7
20260502224552 60 263 0.9 8.7 0.00 0.04 0.04 40 1009.7
20260502223047 61 0 0.0 1.7 0.00 0.04 0.04 38 1009.6
20260502221543 62 236 0.0 5.2 0.00 0.04 0.04 38 1009.6
20260502220044 62 0 0.0 1.7 0.00 0.04 0.04 41 1009.5
20260502214547 61 0 1.7 9.6 0.00 0.04 0.04 37 1009.4
20260502213047 61 277 3.5 9.6 0.00 0.04 0.04 38 1009.3
20260502211549 60 0 0.0 7.0 0.00 0.04 0.04 41 1009.3
20260502210104 59 0 0.9 8.7 0.00 0.04 0.04 42 1009.3
20260502204554 60 0 0.9 18.2 0.00 0.04 0.04 42 1009.2
20260502203048 60 266 0.9 6.1 0.00 0.04 0.04 41 1009.3
20260502201551 59 246 1.7 7.8 0.00 0.04 0.04 46 1009.5
20260502200052 58 0 0.0 0.9 0.00 0.04 0.04 53 1009.7
20260502194546 58 0 0.0 0.9 0.00 0.04 0.04 51 1009.8
20260502193049 58 0 0.0 3.5 0.00 0.04 0.04 52 1010.0
20260502191556 58 0 0.0 2.6 0.00 0.04 0.04 52 1010.3
20260502190057 58 0 0.0 0.9 0.00 0.04 0.04 54 1010.5
20260502184558 58 0 0.0 0.9 0.00 0.04 0.04 58 1010.6
20260502183105 58 0 0.0 3.5 0.00 0.04 0.04 62 1010.6
20260502181550 58 0 0.0 0.9 0.00 0.04 0.04 56 1010.7
20260502163054 56 0 0.0 7.0 0.00 0.04 0.04 65 1011.4
20260502161544 56 0 0.0 1.7 0.00 0.04 0.04 67 1011.4
20260502151549 56 274 0.0 2.6 0.00 0.04 0.04 70 1011.5
20260502123048 50 0 0.0 2.6 0.00 0.04 0.04 92 1011.7
20260502121551 49 0 0.9 4.3 0.00 0.04 0.04 93 1011.7
20260502114548 49 0 0.0 0.9 0.00 0.04 0.04 96 1011.6
20260502113051 49 0 0.0 0.0 0.00 0.04 0.04 96 1011.7
20260502111551 48 0 0.0 0.0 0.00 0.04 0.04 96 1011.5
20260502110044 47 0 0.0 0.0 0.01 0.04 0.04 96 1011.2
20260502104549 47 0 0.0 0.0 0.01 0.04 0.04 95 1011.2
20260502103047 47 0 0.0 0.0 0.02 0.04 0.04 95 1011.1
20260502101553 47 0 0.0 0.0 0.03 0.04 0.04 95 1011.2
20260502070101 50 0 0.0 0.0 0.00 0.00 0.00 90 1011.1
20260502064548 50 0 0.0 0.0 0.00 0.00 0.00 88 1011.0
20260502063048 50 0 0.0 0.0 0.00 0.00 0.00 89 1010.9
20260502061545 50 0 0.0 0.0 0.00 0.00 0.00 88 1011.0
20260502060045 50 0 0.0 0.0 0.00 0.00 0.00 88 1011.2
20260502054544 50 0 0.0 0.0 0.00 0.01 0.00 87 1011.3
20260502053059 50 0 0.0 0.0 0.00 0.01 0.00 86 1011.2
20260502051604 50 0 0.0 0.0 0.00 0.01 0.00 85 1011.2
20260502050051 50 0 0.0 0.0 0.00 0.01 0.00 85 1011.3
20260502044541 50 0 0.0 0.0 0.00 0.01 0.00 85 1011.0
20260502043055 50 0 0.0 0.0 0.00 0.01 0.00 84 1011.2
20260502041602 51 0 0.0 0.0 0.00 0.01 0.00 83 1011.4
20260502040045 50 0 0.0 0.0 0.00 0.01 0.00 82 1011.2
20260502034548 51 0 0.0 0.0 0.00 0.01 0.01 82 1011.2
20260502033059 51 0 0.0 0.0 0.00 0.01 0.01 81 1011.2